Location: Bougoura
(13.1861°N, 5.0773°W)
Time: 00:54:12
(UTC+00:00)

ARIANE 5 R/B - Pass Details

Date: 18 September 2020
Orbit: 248 x 31078 km, 5.9° (Epoch: 21 October)

Event Time Altitude Azimuth Distance (km) Brightness Sun altitude
Rises 19:09:34 0° 262° (W) 11,202 10.2 -13.1°
Reaches altitude 10° 19:23:01 10° 257° (WSW) 6,091 8.2 -16.4°
Maximum altitude 19:34:19 36° 194° (SSW) 1,289 3.7 -19.1°
Enters shadow 19:35:48 27° 150° (SSE) 1,211 3.2 -19.5°
